CST,Max TemperatureF,Mean TemperatureF,Min TemperatureF,Max Dew PointF,MeanDew PointF,Min DewpointF,Max Humidity, Mean Humidity, Min Humidity, Max Sea Level PressureIn, Mean Sea Level PressureIn, Min Sea Level PressureIn, Max VisibilityMiles, Mean VisibilityMiles, Min VisibilityMiles, Max Wind SpeedMPH, Mean Wind SpeedMPH, Max Gust SpeedMPH,PrecipitationIn, CloudCover, Events, WindDirDegrees
2013-1-1,14,-3,-20,11,-2,-25,88,80,70,30.29,30.10,29.89,10,7,2,10,3,17,0.00,6,Snow,248
2013-1-2,21,18,15,18,16,12,93,86,80,30.07,29.95,29.85,10,5,2,18,5,18,0.01,8,Snow,193
2013-1-3,18,12,6,14,6,2,85,77,54,30.20,30.09,29.91,10,7,2,18,12,18,0.00,4,Snow,289
2013-1-4,28,14,1,19,8,-2,88,79,66,30.15,30.04,29.92,10,9,0,15,5,18,0.00,1,Fog,286
2013-1-5,26,14,1,20,8,-4,88,82,74,30.14,29.99,29.85,10,6,0,13,2,,0.00,7,Fog-Snow,3
2013-1-6,21,16,10,12,7,3,86,73,53,30.21,30.11,29.96,10,9,3,14,7,,0.00,4,Snow,277
2013-1-7,37,26,15,23,17,8,81,69,54,29.91,29.81,29.73,10,10,9,15,7,25,0.00,2,,245
2013-1-8,32,18,3,25,16,0,92,82,66,29.99,29.83,29.63,10,6,0,9,3,,0.02,5,Fog-Snow,177
2013-1-9,30,23,16,25,19,12,84,74,66,30.32,29.97,29.66,10,8,1,23,10,41,0.00,7,Snow,259
2013-1-10,45,32,19,30,21,13,89,64,36,30.29,30.02,29.72,10,9,3,15,8,23,0.20,3,Rain,156
2013-1-11,36,34,33,34,32,30,96,91,87,29.70,29.51,29.32,10,3,0,12,6,17,0.45,8,Fog-Rain,143
2013-1-12,37,20,3,34,10,-4,93,75,62,30.09,29.64,29.25,10,6,1,17,8,28,0.04,7,Rain-Snow,290
2013-1-13,23,12,0,0,-4,-8,78,65,34,30.19,30.08,29.97,10,9,5,15,10,,0.00,5,Snow,313
2013-1-14,19,11,3,-1,-5,-8,80,54,33,30.35,30.26,30.11,10,8,2,13,7,18,0.00,6,Snow,275
2013-1-15,25,15,5,9,3,-1,80,68,43,30.26,30.05,29.63,10,10,6,13,4,22,0.00,5,Snow,199
2013-1-16,26,12,-2,22,8,-11,86,72,57,30.28,29.76,29.47,10,7,1,22,13,29,0.00,6,Rain-Snow,289
2013-1-17,8,-2,-11,-6,-11,-17,79,67,53,30.41,30.34,30.18,10,8,2,10,5,18,0.00,5,Snow,297
2013-1-18,19,10,0,14,8,-7,86,79,72,30.30,29.86,29.69,10,5,0,8,4,,0.13,8,Snow,120
2013-1-19,27,12,-2,22,7,-10,88,76,62,30.22,29.74,29.56,9,4,0,34,11,44,0.03,8,Snow,299
2013-1-20,0,-6,-13,-11,-16,-21,77,69,60,30.38,30.24,30.12,10,6,1,18,11,26,0.00,6,Snow,296
2013-1-21,-9,-14,-20,-22,-25,-28,70,64,52,30.32,30.24,30.11,10,9,4,18,12,23,0.00,5,,296
2013-1-22,-2,-14,-26,-16,-24,-33,76,68,54,30.39,30.30,30.19,10,8,2,13,6,,0.00,3,,280
2013-1-23,1,-8,-20,-6,-15,-27,80,65,51,30.71,30.28,30.03,10,5,0,29,12,36,0.00,6,Snow,323
2013-1-24,3,-12,-27,-4,-17,-35,78,68,51,30.75,30.47,30.17,10,7,1,13,4,,0.00,5,Snow,144
2013-1-25,12,4,-5,3,-1,-11,85,75,61,30.35,30.02,29.82,10,6,1,17,6,,0.05,7,Snow,308
2013-1-26,15,-2,-20,4,-8,-26,84,71,56,30.40,30.31,30.19,10,10,10,13,3,20,0.00,4,,146
2013-1-27,30,15,0,22,10,-6,84,69,52,30.19,30.01,29.82,10,10,10,9,3,,0.00,4,,130
2013-1-28,30,28,25,28,26,22,93,86,76,29.89,29.80,29.67,10,6,2,8,3,,0.07,8,Rain-Snow,145
2013-1-29,30,24,19,28,24,13,93,84,72,29.82,29.63,29.54,10,6,2,17,5,21,0.07,8,Rain-Snow,343
2013-1-30,18,12,6,11,3,-1,79,72,67,29.81,29.71,29.61,10,6,2,20,15,25,0.00,8,Snow,332
2013-1-31,5,-4,-15,-2,-9,-22,77,69,62,30.24,29.93,29.72,10,5,1,23,16,26,0.00,7,Snow,316